EW3281 Weather Reports


time (UTC)temp
C
wind
direction
speed
KPH
gust
KPH
rain 1hr
cm
rain 24hr
cm
rain mn
cm
humidity
%
barometer
mb
20260503025626 8 51 0.0 0.0 0.00 0.03 0.03 93 1008.3
20260503025004 8 51 0.0 0.0 0.00 0.03 0.03 93 1008.4
20260503024504 8 51 0.0 0.0 0.00 0.03 0.03 93 1008.3
20260503024004 8 51 0.0 0.0 0.00 0.03 0.03 93 1008.4
20260503023503 8 51 0.0 0.0 0.00 0.03 0.03 93 1008.5
20260503023002 8 51 0.0 0.0 0.00 0.03 0.03 93 1008.6
20260503022502 9 51 0.0 0.0 0.00 0.03 0.03 93 1008.6
20260503022005 9 51 0.0 0.0 0.00 0.03 0.03 92 1008.7
20260503021502 9 51 0.0 0.0 0.00 0.03 0.03 92 1008.7
20260503021002 9 51 0.0 0.0 0.00 0.03 0.03 92 1008.6
20260503020501 9 51 0.0 0.0 0.00 0.03 0.03 92 1008.6
20260503020000 9 51 0.0 0.0 0.00 0.03 0.03 92 1008.6
20260503015601 9 51 0.0 0.0 0.00 0.03 0.03 92 1008.8
20260503015018 9 51 0.0 0.0 0.00 0.03 0.03 92 1008.8
20260503014518 9 51 0.0 0.0 0.00 0.03 0.03 92 1008.8
20260503014018 9 51 0.0 0.0 0.00 0.03 0.03 92 1008.9
20260503013523 9 51 0.0 0.0 0.00 0.03 0.03 92 1008.9
20260503013026 9 51 0.0 0.0 0.00 0.03 0.03 91 1008.9
20260503012519 9 51 0.0 0.0 0.00 0.03 0.03 91 1008.9
20260503012020 9 51 0.0 0.0 0.00 0.03 0.03 91 1009.0
20260503011516 9 51 0.0 0.0 0.00 0.03 0.03 91 1008.9
20260503011016 9 51 0.0 0.0 0.00 0.03 0.03 91 1008.8
20260503010516 9 51 0.0 0.0 0.00 0.03 0.03 91 1008.8
20260503010015 9 51 0.0 0.0 0.00 0.03 0.03 91 1008.8
20260503005617 9 51 0.0 0.0 0.00 0.03 0.03 91 1008.7
20260503005031 9 51 0.0 0.0 0.00 0.03 0.03 91 1008.7
20260503004527 9 51 0.0 0.0 0.00 0.03 0.03 91 1008.7
20260503004027 9 51 0.0 0.0 0.00 0.03 0.03 91 1008.6
20260503003527 9 51 0.0 0.0 0.00 0.03 0.03 91 1008.6
20260503003027 9 51 0.0 0.0 0.00 0.03 0.03 91 1008.6
20260503002531 9 51 0.0 0.0 0.00 0.03 0.03 91 1008.6
20260503002028 9 51 0.0 0.0 0.00 0.03 0.03 91 1008.6
20260503001527 9 51 0.0 0.0 0.00 0.03 0.03 91 1008.6
20260503001026 9 51 0.0 0.0 0.00 0.03 0.03 90 1008.6
20260503000528 9 51 0.0 0.0 0.00 0.03 0.03 90 1008.5
20260503000028 9 51 0.0 0.0 0.00 0.03 0.03 90 1008.5
20260502235625 9 51 0.0 0.0 0.00 0.03 0.03 90 1008.7
20260502235004 9 51 0.0 0.0 0.00 0.03 0.03 90 1008.7
20260502234504 9 51 0.0 0.0 0.00 0.03 0.03 90 1008.6
20260502234006 9 51 0.0 0.0 0.00 0.03 0.03 90 1008.6
20260502233506 9 51 0.0 0.0 0.00 0.03 0.03 90 1008.7
20260502233003 9 51 0.0 0.0 0.00 0.03 0.03 90 1008.7
20260502232503 10 51 0.0 0.0 0.00 0.03 0.03 90 1008.7
20260502232003 10 51 0.0 0.0 0.00 0.03 0.03 90 1008.7
20260502231505 10 51 0.0 0.0 0.00 0.03 0.03 90 1008.7
20260502231002 10 51 0.0 0.0 0.00 0.03 0.03 90 1008.6
20260502230502 10 51 0.0 0.0 0.00 0.03 0.03 90 1008.7
20260502230000 10 48 0.0 0.0 0.00 0.03 0.03 89 1008.7
20260502225600 10 69 0.0 0.0 0.00 0.03 0.03 89 1008.8
20260502225048 10 69 0.0 0.0 0.00 0.03 0.03 89 1008.8
20260502224555 10 101 0.0 0.0 0.00 0.03 0.03 89 1008.8
20260502224046 10 109 0.0 0.0 0.00 0.03 0.03 89 1008.7
20260502223547 10 76 0.0 0.0 0.00 0.03 0.03 89 1008.7
20260502223045 10 63 0.0 0.0 0.00 0.03 0.03 89 1008.7
20260502222544 10 96 0.0 1.6 0.00 0.03 0.03 89 1008.8
20260502222045 10 96 0.0 1.6 0.00 0.03 0.03 88 1008.6
20260502221551 10 97 0.0 0.0 0.00 0.03 0.03 88 1008.7
20260502221044 10 97 0.0 0.0 0.00 0.03 0.03 88 1008.6
20260502220545 10 97 0.0 0.0 0.00 0.03 0.03 87 1008.6
20260502220145 10 67 0.0 0.0 0.00 0.03 0.03 87 1008.7
20260502215544 10 229 0.0 0.0 0.00 0.03 0.03 87 1008.7
20260502215056 10 229 0.0 0.0 0.00 0.03 0.03 87 1008.7
20260502214553 10 216 0.0 0.0 0.00 0.03 0.03 87 1008.5
20260502214053 10 226 0.0 0.0 0.00 0.03 0.03 87 1008.6
20260502213553 10 268 0.0 0.0 0.00 0.03 0.03 87 1008.5
20260502213052 10 88 0.0 0.0 0.00 0.03 0.03 87 1008.5
20260502212552 10 7 0.0 0.0 0.00 0.03 0.03 87 1008.4
20260502212053 10 74 0.0 0.0 0.00 0.03 0.03 88 1008.4
20260502211552 10 59 0.0 0.0 0.00 0.03 0.03 88 1008.3
20260502211053 10 96 0.0 0.0 0.00 0.03 0.03 88 1008.5
20260502210549 10 80 0.0 0.0 0.00 0.03 0.03 88 1008.5
20260502210051 10 202 0.0 0.0 0.00 0.03 0.03 88 1008.6
20260502205550 10 18 0.0 0.0 0.00 0.03 0.03 88 1008.7
20260502205041 10 18 0.0 0.0 0.00 0.03 0.03 88 1008.7
20260502204545 10 194 0.0 0.0 0.00 0.03 0.03 88 1008.7
20260502204041 10 39 0.0 0.0 0.00 0.03 0.03 88 1008.7
20260502203541 10 29 0.0 0.0 0.00 0.03 0.03 88 1008.7
20260502203046 10 202 0.0 0.0 0.00 0.03 0.03 88 1008.7
20260502202540 10 224 0.0 0.0 0.00 0.03 0.03 88 1008.8
20260502202039 10 139 0.0 0.0 0.03 0.03 0.03 88 1008.9
20260502201539 10 101 0.0 0.0 0.03 0.03 0.03 88 1008.9
20260502201038 10 50 0.0 0.0 0.03 0.03 0.03 88 1008.9
20260502200538 10 225 0.0 0.0 0.03 0.03 0.03 88 1009.0
20260502200038 10 145 0.0 0.0 0.03 0.03 0.03 87 1009.0
20260502195538 10 113 0.0 0.0 0.03 0.03 0.03 88 1009.0
20260502195034 10 203 0.0 0.0 0.03 0.03 0.03 88 1009.1
20260502194537 10 71 0.0 0.0 0.03 0.03 0.03 88 1009.2
20260502194033 10 225 0.0 0.0 0.03 0.03 0.03 88 1009.3
20260502193532 10 131 0.0 0.0 0.03 0.03 0.03 88 1009.3
20260502193032 10 223 0.0 0.0 0.03 0.03 0.03 88 1009.2
20260502192533 10 196 0.0 0.0 0.03 0.03 0.03 88 1009.3
20260502192030 10 32 0.0 0.0 0.00 0.00 0.00 88 1009.4
20260502191531 10 60 0.0 0.0 0.00 0.00 0.00 87 1009.5
20260502191032 10 215 0.0 0.0 0.00 0.00 0.00 87 1009.6
20260502190533 10 211 0.0 0.0 0.00 0.00 0.00 86 1009.6
20260502190030 10 337 0.0 0.0 0.00 0.00 0.00 85 1009.6
20260502185527 11 180 0.0 0.0 0.00 0.00 0.00 83 1009.8
20260502185027 11 165 0.0 0.0 0.00 0.00 0.00 83 1009.7
20260502184527 11 153 0.0 0.0 0.00 0.00 0.00 83 1009.8
20260502184026 11 174 0.0 0.0 0.00 0.00 0.00 81 1009.8
20260502183526 11 352 0.0 0.0 0.00 0.00 0.00 79 1009.9
20260502183026 11 53 0.0 4.8 0.00 0.00 0.00 78 1009.8
20260502182526 11 89 0.0 1.6 0.00 0.00 0.00 79 1009.7
20260502182025 11 85 0.0 1.6 0.00 0.00 0.00 81 1009.8
20260502181524 11 31 0.0 1.6 0.00 0.00 0.00 81 1009.8
20260502181024 11 114 0.0 0.0 0.00 0.00 0.00 81 1009.9
20260502180524 11 85 0.0 0.0 0.00 0.00 0.00 80 1009.9
20260502163030 11 44 0.0 0.0 0.00 0.00 0.00 79 1010.1
20260502162517 11 123 0.0 0.0 0.00 0.00 0.00 79 1010.1
20260502162016 11 76 0.0 0.0 0.00 0.00 0.00 79 1010.0
20260502161518 11 32 0.0 0.0 0.00 0.00 0.00 77 1010.0
20260502160519 12 252 0.0 1.6 0.00 0.00 0.00 78 1010.2
20260502152011 12 101 0.0 0.0 0.00 0.00 0.00 74 1010.4
20260502151510 13 108 0.0 0.0 0.00 0.00 0.00 74 1010.5
20260502150509 13 105 0.0 0.0 0.00 0.00 0.00 77 1010.3
20260502130512 11 223 0.0 1.6 0.00 0.00 0.00 80 1011.2
20260502123514 10 194 0.0 0.0 0.00 0.00 0.00 82 1011.2
20260502123012 10 222 0.0 0.0 0.00 0.00 0.00 82 1011.2
20260502122510 10 157 0.0 0.0 0.00 0.00 0.00 81 1011.1
20260502122012 10 200 0.0 1.6 0.00 0.00 0.00 81 1010.9
20260502121509 10 53 0.0 0.0 0.00 0.00 0.00 81 1010.8
20260502120558 10 131 0.0 0.0 0.00 0.00 0.00 82 1010.9
20260502120129 10 93 0.0 0.0 0.00 0.00 0.00 83 1010.9
20260502115559 10 266 0.0 1.6 0.00 0.00 0.00 82 1010.8
20260502115058 10 306 0.0 1.6 0.00 0.00 0.00 83 1010.8
20260502114658 10 84 0.0 0.0 0.00 0.00 0.00 83 1010.8
20260502114059 10 30 0.0 0.0 0.00 0.00 0.00 83 1010.7
20260502113557 10 183 0.0 0.0 0.00 0.00 0.00 83 1010.7
20260502113057 10 4 0.0 0.0 0.00 0.00 0.00 83 1010.6
20260502112556 10 205 0.0 0.0 0.00 0.00 0.00 83 1010.4
20260502112056 9 169 0.0 0.0 0.00 0.00 0.00 83 1010.4
20260502111556 9 349 0.0 0.0 0.00 0.00 0.00 83 1010.4
20260502110558 9 208 0.0 0.0 0.00 0.00 0.00 83 1010.4
20260502110055 9 190 0.0 0.0 0.00 0.00 0.00 83 1010.4
20260502105555 9 307 0.0 0.0 0.00 0.00 0.00 82 1010.5
20260502105054 9 357 0.0 0.0 0.00 0.00 0.00 82 1010.6
20260502104554 -17 0.0 0.0 0.00 0.00 0.00 1010.5
20260502104051 -17 0.0 0.0 0.00 0.00 0.00 1010.4
20260502103551 -17 0.0 0.0 0.00 0.00 0.00 1010.5
20260502103050 -17 0.0 0.0 0.00 0.00 0.00 1010.3
20260502102551 -17 0.0 0.0 0.00 0.00 0.00 1010.0
20260502102045 -17 0.0 0.0 0.00 0.00 0.00 1010.1
20260502101554 -17 0.0 0.0 0.00 0.00 0.00 1010.2
20260502100545 -17 0.0 0.0 0.00 0.00 0.00 1010.1
20260502090546 8 247 0.0 0.0 0.00 0.00 0.00 80 1010.1
20260502071530 8 241 0.0 0.0 0.00 0.00 0.00 74 1009.9
20260502070527 9 241 0.0 0.0 0.00 0.00 0.00 73 1009.9
20260502070026 9 241 0.0 0.0 0.00 0.00 0.00 73 1009.8
20260502065524 9 239 0.0 0.0 0.00 0.00 0.00 73 1009.8
20260502065023 9 314 0.0 0.0 0.00 0.00 0.00 73 1009.9
20260502064530 9 241 0.0 0.0 0.00 0.00 0.00 73 1009.9
20260502064026 9 304 0.0 0.0 0.00 0.00 0.00 73 1010.0
20260502063523 10 261 0.0 0.0 0.00 0.00 0.00 72 1010.0
20260502063024 10 261 0.0 0.0 0.00 0.00 0.00 72 1010.0
20260502062524 10 261 0.0 0.0 0.00 0.00 0.00 73 1010.1
20260502062023 9 252 0.0 0.0 0.00 0.00 0.00 74 1010.1
20260502061522 9 74 0.0 0.0 0.00 0.00 0.00 77 1010.1
20260502060522 8 77 0.0 0.0 0.00 0.00 0.00 77 1010.2
20260502060022 8 6 0.0 0.0 0.00 0.00 0.00 78 1010.1
20260502055522 8 338 0.0 0.0 0.00 0.00 0.00 80 1010.1
20260502055023 8 341 0.0 0.0 0.00 0.00 0.00 81 1010.3
20260502054523 7 338 0.0 0.0 0.00 0.00 0.00 81 1010.3
20260502054021 7 338 0.0 0.0 0.00 0.00 0.00 80 1010.4
20260502053520 7 338 0.0 0.0 0.00 0.00 0.00 79 1010.3
20260502053020 8 338 0.0 0.0 0.00 0.00 0.00 79 1010.4
20260502052520 8 338 0.0 0.0 0.00 0.00 0.00 78 1010.3
20260502052019 8 338 0.0 0.0 0.00 0.00 0.00 77 1010.3
20260502051522 8 338 0.0 0.0 0.00 0.00 0.00 76 1010.2
20260502050517 8 338 0.0 0.0 0.00 0.00 0.00 74 1010.2
20260502050029 8 338 0.0 0.0 0.00 0.00 0.00 73 1010.3
20260502045514 9 338 0.0 0.0 0.00 0.00 0.00 72 1010.3
20260502045013 9 338 0.0 0.0 0.00 0.00 0.00 71 1010.4
20260502044512 10 338 0.0 0.0 0.00 0.00 0.00 71 1010.3
20260502044011 10 338 0.0 0.0 0.00 0.00 0.00 70 1010.4
20260502043510 10 267 0.0 0.0 0.00 0.00 0.00 70 1010.4
20260502043010 10 42 0.0 0.0 0.00 0.00 0.00 69 1010.4
20260502042509 10 42 0.0 0.0 0.00 0.00 0.00 69 1010.5
20260502042012 10 244 0.0 0.0 0.00 0.00 0.00 68 1010.4
20260502041513 10 227 0.0 0.0 0.00 0.00 0.00 69 1010.4
20260502040509 10 235 0.0 0.0 0.00 0.00 0.00 69 1010.5
20260502040012 10 52 0.0 0.0 0.00 0.00 0.00 68 1010.4
20260502035508 10 229 0.0 0.0 0.00 0.00 0.00 68 1010.5
20260502035008 10 221 0.0 0.0 0.00 0.00 0.00 68 1010.4
20260502034512 10 193 0.0 0.0 0.00 0.00 0.00 68 1010.5
20260502034008 10 250 0.0 0.0 0.00 0.00 0.00 68 1010.5
20260502033509 10 219 0.0 0.0 0.00 0.00 0.00 69 1010.5
20260502033015 10 240 0.0 0.0 0.00 0.00 0.00 68 1010.4
20260502032508 10 210 0.0 0.0 0.00 0.00 0.00 69 1010.5
20260502032007 10 236 0.0 0.0 0.00 0.00 0.00 69 1010.5
20260502031507 10 215 0.0 0.0 0.00 0.00 0.00 67 1010.4
20260502030509 10 231 0.0 0.0 0.00 0.00 0.00 67 1010.4
20260502030013 10 231 0.0 0.0 0.00 0.00 0.00 66 1010.3